| time (UTC) | temp C | wind direction | speed KPH | gust KPH | rain 1hr cm | rain 24hr cm | rain mn cm | humidity % | barometer mb |
| 20260507071516 | 3 | 115 | 4.8 | 6.4 | 0.00 | 0.00 | 0.00 | 89 | 1012.2 |
| 20260507071012 | 3 | 122 | 6.4 | 6.4 | 0.00 | 0.00 | 0.00 | 89 | 1012.3 |
| 20260507070509 | 3 | 120 | 6.4 | 6.4 | 0.00 | 0.00 | 0.00 | 89 | 1012.5 |
| 20260507070010 | 3 | 117 | 4.8 | 6.4 | 0.00 | 0.00 | 0.00 | 89 | 1012.8 |
| 20260507065502 | 4 | 118 | 4.8 | 6.4 | 0.00 | 0.00 | 0.00 | 89 | 1012.5 |
| 20260507064959 | 4 | 126 | 4.8 | 6.4 | 0.00 | 0.00 | 0.00 | 89 | 1012.7 |
| 20260507064458 | 4 | 118 | 4.8 | 6.4 | 0.00 | 0.00 | 0.00 | 89 | 1012.7 |
| 20260507063955 | 4 | 115 | 4.8 | 8.0 | 0.00 | 0.00 | 0.00 | 89 | 1012.8 |
| 20260507063452 | 4 | 122 | 4.8 | 6.4 | 0.00 | 0.00 | 0.00 | 89 | 1012.7 |
| 20260507062949 | 4 | 128 | 4.8 | 6.4 | 0.00 | 0.00 | 0.00 | 89 | 1012.7 |
| 20260507062446 | 4 | 122 | 4.8 | 6.4 | 0.00 | 0.00 | 0.00 | 89 | 1012.7 |
| 20260507061944 | 4 | 121 | 4.8 | 6.4 | 0.00 | 0.00 | 0.00 | 88 | 1012.7 |
| 20260507061442 | 5 | 114 | 4.8 | 6.4 | 0.00 | 0.00 | 0.00 | 87 | 1012.6 |
| 20260507060940 | 5 | 121 | 4.8 | 6.4 | 0.00 | 0.00 | 0.00 | 86 | 1012.7 |
| 20260507060436 | 5 | 121 | 6.4 | 6.4 | 0.00 | 0.00 | 0.00 | 84 | 1012.5 |
| 20260507055933 | 5 | 121 | 4.8 | 8.0 | 0.00 | 0.00 | 0.00 | 83 | 1012.6 |
| 20260507055428 | 5 | 120 | 4.8 | 6.4 | 0.00 | 0.00 | 0.00 | 81 | 1012.7 |
| 20260507054925 | 5 | 123 | 4.8 | 6.4 | 0.00 | 0.00 | 0.00 | 80 | 1012.7 |
| 20260507054421 | 5 | 132 | 4.8 | 6.4 | 0.00 | 0.00 | 0.00 | 79 | 1012.8 |
| 20260507053919 | 5 | 129 | 4.8 | 6.4 | 0.00 | 0.00 | 0.00 | 79 | 1012.9 |
| 20260507053416 | 6 | 126 | 4.8 | 6.4 | 0.00 | 0.00 | 0.00 | 77 | 1012.8 |
| 20260507052915 | 6 | 124 | 4.8 | 6.4 | 0.00 | 0.00 | 0.00 | 72 | 1012.8 |
| 20260507052412 | 6 | 126 | 4.8 | 6.4 | 0.00 | 0.00 | 0.00 | 71 | 1013.0 |
| 20260507051909 | 6 | 121 | 3.2 | 6.4 | 0.00 | 0.00 | 0.00 | 70 | 1012.7 |
| 20260507051407 | 6 | 176 | 3.2 | 4.8 | 0.00 | 0.00 | 0.00 | 71 | 1012.9 |
| 20260507050903 | 6 | 278 | 8.0 | 8.0 | 0.00 | 0.00 | 0.00 | 70 | 1012.7 |
| 20260507050359 | 7 | 282 | 9.7 | 14.5 | 0.00 | 0.00 | 0.00 | 73 | 1012.9 |
| 20260507045856 | 7 | 294 | 12.9 | 17.7 | 0.00 | 0.00 | 0.00 | 77 | 1013.1 |
| 20260507045353 | 7 | 290 | 8.0 | 16.1 | 0.00 | 0.00 | 0.00 | 74 | 1012.8 |
| 20260507044850 | 7 | 299 | 14.5 | 17.7 | 0.00 | 0.00 | 0.00 | 71 | 1012.9 |
| 20260507044347 | 7 | 290 | 16.1 | 19.3 | 0.00 | 0.00 | 0.00 | 70 | 1013.3 |
| 20260507043842 | 7 | 290 | 16.1 | 17.7 | 0.00 | 0.00 | 0.00 | 69 | 1013.0 |
| 20260507043339 | 7 | 299 | 14.5 | 20.9 | 0.00 | 0.00 | 0.00 | 67 | 1013.0 |
| 20260507042836 | 7 | 299 | 17.7 | 20.9 | 0.00 | 0.00 | 0.00 | 70 | 1013.2 |
| 20260507042331 | 7 | 285 | 12.9 | 22.5 | 0.00 | 0.00 | 0.00 | 66 | 1013.0 |
| 20260507041829 | 7 | 294 | 19.3 | 20.9 | 0.00 | 0.00 | 0.00 | 70 | 1012.9 |
| 20260507041325 | 7 | 275 | 9.7 | 22.5 | 0.00 | 0.00 | 0.00 | 71 | 1013.1 |
| 20260507040822 | 7 | 298 | 12.9 | 19.3 | 0.00 | 0.00 | 0.00 | 73 | 1013.0 |
| 20260507040318 | 7 | 295 | 19.3 | 19.3 | 0.00 | 0.00 | 0.00 | 71 | 1013.0 |
| 20260507035814 | 7 | 285 | 11.3 | 19.3 | 0.00 | 1.52 | 1.52 | 66 | 1012.9 |
| 20260507035310 | 7 | 298 | 9.7 | 17.7 | 0.00 | 1.52 | 1.52 | 69 | 1012.9 |
| 20260507034808 | 7 | 282 | 17.7 | 20.9 | 0.00 | 1.52 | 1.52 | 74 | 1013.0 |
| 20260507034305 | 7 | 283 | 17.7 | 24.1 | 0.00 | 1.52 | 1.52 | 70 | 1012.9 |
| 20260507033803 | 7 | 285 | 14.5 | 24.1 | 0.00 | 1.52 | 1.52 | 74 | 1012.9 |
| 20260507033300 | 6 | 213 | 4.8 | 14.5 | 0.00 | 1.52 | 1.52 | 80 | 1013.0 |
| 20260507032757 | 6 | 239 | 3.2 | 8.0 | 0.00 | 1.52 | 1.52 | 80 | 1012.9 |
| 20260507032253 | 6 | 152 | 4.8 | 8.0 | 0.00 | 1.52 | 1.52 | 80 | 1012.8 |
| 20260507031749 | 6 | 219 | 4.8 | 8.0 | 0.00 | 1.52 | 1.52 | 78 | 1012.7 |
| 20260507031247 | 7 | 196 | 3.2 | 6.4 | 0.00 | 1.52 | 1.52 | 77 | 1012.9 |
| 20260507030743 | 7 | 290 | 12.9 | 19.3 | 0.00 | 1.52 | 1.52 | 78 | 1012.8 |
| 20260507030241 | 7 | 216 | 4.8 | 16.1 | 0.00 | 1.52 | 1.52 | 77 | 1012.9 |
| 20260507025738 | 7 | 239 | 3.2 | 19.3 | 0.00 | 1.52 | 1.52 | 79 | 1012.6 |
| 20260507025235 | 7 | 286 | 11.3 | 16.1 | 0.00 | 1.52 | 1.52 | 81 | 1012.8 |
| 20260507024733 | 7 | 286 | 14.5 | 19.3 | 0.00 | 1.52 | 1.52 | 81 | 1012.8 |
| 20260507024230 | 7 | 257 | 6.4 | 19.3 | 0.00 | 1.52 | 1.52 | 81 | 1012.8 |
| 20260507023725 | 7 | 287 | 9.7 | 16.1 | 0.00 | 1.52 | 1.52 | 80 | 1012.7 |
| 20260507023222 | 7 | 285 | 14.5 | 19.3 | 0.00 | 1.52 | 1.52 | 80 | 1012.7 |
| 20260507022720 | 6 | 286 | 11.3 | 14.5 | 0.00 | 1.52 | 1.52 | 91 | 1012.7 |
| 20260507022216 | 6 | 116 | 4.8 | 6.4 | 0.00 | 1.52 | 1.52 | 94 | 1012.8 |
| 20260507021712 | 6 | 114 | 6.4 | 6.4 | 0.00 | 1.52 | 1.52 | 95 | 1013.0 |
| 20260507021207 | 6 | 154 | 3.2 | 6.4 | 0.00 | 1.52 | 1.52 | 95 | 1013.1 |
| 20260507020706 | 6 | 141 | 3.2 | 6.4 | 0.00 | 1.52 | 1.52 | 96 | 1012.9 |
| 20260507020202 | 6 | 119 | 4.8 | 6.4 | 0.00 | 1.52 | 1.52 | 96 | 1013.0 |
| 20260507015700 | 6 | 116 | 3.2 | 6.4 | 0.00 | 1.52 | 1.52 | 96 | 1013.1 |
| 20260507015157 | 6 | 163 | 3.2 | 4.8 | 0.00 | 1.52 | 1.52 | 96 | 1012.9 |
| 20260507014653 | 6 | 141 | 3.2 | 6.4 | 0.00 | 1.52 | 1.52 | 96 | 1012.6 |
| 20260507014150 | 6 | 140 | 3.2 | 6.4 | 0.00 | 1.52 | 1.52 | 96 | 1012.6 |
| 20260507013647 | 6 | 113 | 3.2 | 4.8 | 0.00 | 1.52 | 1.52 | 96 | 1012.7 |
| 20260507013144 | 6 | 113 | 3.2 | 6.4 | 0.00 | 1.52 | 1.52 | 96 | 1012.6 |
| 20260507012642 | 6 | 157 | 3.2 | 6.4 | 0.00 | 1.52 | 1.52 | 96 | 1012.6 |
| 20260507012136 | 6 | 132 | 4.8 | 6.4 | 0.00 | 1.52 | 1.52 | 96 | 1012.4 |
| 20260507011635 | 6 | 114 | 3.2 | 6.4 | 0.00 | 1.52 | 1.52 | 96 | 1012.7 |
| 20260507011131 | 6 | 121 | 4.8 | 6.4 | 0.00 | 1.52 | 1.52 | 96 | 1012.5 |
| 20260507010626 | 6 | 115 | 4.8 | 6.4 | 0.00 | 1.52 | 1.52 | 96 | 1012.5 |
| 20260507010122 | 6 | 123 | 4.8 | 6.4 | 0.00 | 1.52 | 1.52 | 96 | 1012.4 |
| 20260507005620 | 6 | 144 | 3.2 | 4.8 | 0.00 | 1.52 | 1.52 | 96 | 1012.5 |
| 20260507005116 | 6 | 111 | 6.4 | 6.4 | 0.00 | 1.52 | 1.52 | 96 | 1012.3 |
| 20260507004613 | 6 | 121 | 4.8 | 4.8 | 0.00 | 1.52 | 1.52 | 96 | 1012.3 |
| 20260507004110 | 6 | 115 | 4.8 | 6.4 | 0.00 | 1.52 | 1.52 | 95 | 1012.3 |
| 20260507003606 | 6 | 117 | 4.8 | 4.8 | 0.00 | 1.52 | 1.52 | 95 | 1012.1 |
| 20260507003101 | 6 | 118 | 3.2 | 6.4 | 0.00 | 1.52 | 1.52 | 95 | 1011.9 |
| 20260507002558 | 6 | 118 | 4.8 | 6.4 | 0.00 | 1.52 | 1.52 | 95 | 1012.1 |
| 20260507002053 | 6 | 120 | 4.8 | 6.4 | 0.00 | 1.52 | 1.52 | 95 | 1012.0 |
| 20260507001550 | 6 | 111 | 4.8 | 4.8 | 0.00 | 1.52 | 1.52 | 94 | 1012.0 |
| 20260507001048 | 6 | 125 | 3.2 | 4.8 | 0.00 | 1.52 | 1.52 | 94 | 1011.9 |
| 20260507000544 | 6 | 111 | 3.2 | 4.8 | 0.00 | 1.52 | 1.52 | 94 | 1011.7 |
| 20260507000039 | 6 | 119 | 3.2 | 6.4 | 0.00 | 1.52 | 1.52 | 94 | 1012.0 |
| 20260506235537 | 6 | 125 | 6.4 | 6.4 | 0.00 | 1.52 | 1.52 | 94 | 1011.8 |
| 20260506235032 | 6 | 310 | 8.0 | 9.7 | 0.00 | 1.52 | 1.52 | 94 | 1011.9 |
| 20260506234530 | 6 | 301 | 8.0 | 12.9 | 0.00 | 1.52 | 1.52 | 95 | 1011.8 |
| 20260506234027 | 6 | 290 | 11.3 | 16.1 | 0.00 | 1.52 | 1.52 | 96 | 1012.0 |
| 20260506233524 | 6 | 297 | 9.7 | 16.1 | 0.00 | 1.52 | 1.52 | 96 | 1011.7 |
| 20260506233021 | 6 | 319 | 11.3 | 14.5 | 0.00 | 1.52 | 1.52 | 96 | 1011.6 |
| 20260506232517 | 6 | 318 | 14.5 | 16.1 | 0.00 | 1.52 | 1.52 | 96 | 1011.6 |
| 20260506232013 | 6 | 326 | 11.3 | 17.7 | 0.00 | 1.52 | 1.52 | 97 | 1011.6 |
| 20260506231510 | 6 | 300 | 16.1 | 19.3 | 0.05 | 1.52 | 1.52 | 96 | 1011.6 |
| 20260506231008 | 6 | 316 | 6.4 | 9.7 | 0.05 | 1.52 | 1.52 | 96 | 1011.6 |
| 20260506230504 | 6 | 307 | 9.7 | 14.5 | 0.05 | 1.52 | 1.52 | 96 | 1011.6 |
| 20260506230001 | 6 | 320 | 12.9 | 17.7 | 0.05 | 1.52 | 1.52 | 96 | 1011.6 |
| 20260506225458 | 6 | 322 | 12.9 | 17.7 | 0.05 | 1.50 | 1.50 | 96 | 1011.5 |
| 20260506224954 | 6 | 311 | 16.1 | 20.9 | 0.05 | 1.50 | 1.50 | 96 | 1011.7 |
| 20260506224452 | 6 | 311 | 17.7 | 22.5 | 0.00 | 1.50 | 1.50 | 96 | 1011.5 |
| 20260506223948 | 6 | 297 | 17.7 | 22.5 | 0.00 | 1.50 | 1.50 | 96 | 1011.5 |
| 20260506223444 | 6 | 299 | 14.5 | 19.3 | 0.05 | 1.50 | 1.50 | 95 | 1011.2 |
| 20260506222941 | 6 | 313 | 17.7 | 22.5 | 0.00 | 1.50 | 1.50 | 95 | 1011.2 |
| 20260506222438 | 6 | 322 | 12.9 | 14.5 | 0.00 | 1.50 | 1.50 | 95 | 1011.3 |
| 20260506221935 | 6 | 346 | 6.4 | 9.7 | 0.00 | 1.50 | 1.50 | 94 | 1011.1 |
| 20260506221432 | 6 | 10 | 9.7 | 12.9 | 0.05 | 1.50 | 1.50 | 94 | 1011.1 |
| 20260506220930 | 6 | 357 | 9.7 | 14.5 | 0.00 | 1.47 | 1.47 | 94 | 1010.7 |
| 20260506220425 | 6 | 2 | 9.7 | 14.5 | 0.00 | 1.47 | 1.47 | 92 | 1010.6 |
| 20260506215921 | 6 | 358 | 12.9 | 17.7 | 0.00 | 1.47 | 1.47 | 91 | 1010.5 |
| 20260506215418 | 7 | 76 | 12.9 | 12.9 | 0.00 | 1.47 | 1.47 | 92 | 1010.5 |
| 20260506214914 | 7 | 70 | 9.7 | 12.9 | 0.00 | 1.47 | 1.47 | 92 | 1010.4 |
| 20260506214411 | 7 | 66 | 14.5 | 14.5 | 0.00 | 1.47 | 1.47 | 91 | 1010.2 |
| 20260506213908 | 7 | 71 | 16.1 | 17.7 | 0.00 | 1.47 | 1.47 | 91 | 1010.2 |
| 20260506213406 | 7 | 84 | 17.7 | 19.3 | 0.00 | 1.47 | 1.47 | 91 | 1010.0 |
| 20260506212903 | 7 | 82 | 14.5 | 19.3 | 0.00 | 1.47 | 1.47 | 91 | 1010.0 |
| 20260506212359 | 7 | 86 | 16.1 | 19.3 | 0.00 | 1.47 | 1.47 | 92 | 1009.9 |
| 20260506211853 | 7 | 87 | 16.1 | 20.9 | 0.00 | 1.47 | 1.47 | 91 | 1009.9 |
| 20260506211350 | 8 | 88 | 14.5 | 22.5 | 0.00 | 1.47 | 1.47 | 90 | 1009.8 |
| 20260506210847 | 8 | 92 | 17.7 | 20.9 | 0.00 | 1.47 | 1.47 | 91 | 1009.7 |
| 20260506210344 | 8 | 85 | 17.7 | 20.9 | 0.00 | 1.47 | 1.47 | 90 | 1009.8 |
| 20260506205842 | 8 | 95 | 19.3 | 22.5 | 0.00 | 1.47 | 1.47 | 90 | 1009.8 |
| 20260506205337 | 8 | 91 | 19.3 | 20.9 | 0.00 | 1.47 | 1.47 | 90 | 1009.9 |
| 20260506204834 | 8 | 89 | 17.7 | 20.9 | 0.00 | 1.47 | 1.47 | 90 | 1009.8 |
| 20260506204332 | 8 | 101 | 16.1 | 22.5 | 0.00 | 1.47 | 1.47 | 89 | 1009.9 |
| 20260506203829 | 8 | 93 | 17.7 | 20.9 | 0.00 | 1.47 | 1.47 | 90 | 1009.8 |
| 20260506203326 | 8 | 88 | 17.7 | 22.5 | 0.00 | 1.47 | 1.47 | 90 | 1009.8 |
| 20260506202823 | 8 | 80 | 22.5 | 22.5 | 0.00 | 1.47 | 1.47 | 90 | 1009.8 |
| 20260506202320 | 8 | 87 | 19.3 | 20.9 | 0.00 | 1.47 | 1.47 | 89 | 1009.9 |
| 20260506201816 | 8 | 91 | 16.1 | 22.5 | 0.00 | 1.47 | 1.47 | 89 | 1009.8 |
| 20260506201314 | 8 | 81 | 17.7 | 19.3 | 0.00 | 1.47 | 1.47 | 89 | 1010.0 |
| 20260506200811 | 8 | 80 | 17.7 | 19.3 | 0.00 | 1.47 | 1.47 | 89 | 1010.0 |
| 20260506200307 | 8 | 96 | 16.1 | 19.3 | 0.00 | 1.47 | 1.47 | 89 | 1010.1 |
| 20260506195803 | 7 | 92 | 12.9 | 19.3 | 0.00 | 1.47 | 1.47 | 89 | 1010.1 |
| 20260506195300 | 7 | 81 | 16.1 | 17.7 | 0.00 | 1.47 | 1.47 | 88 | 1010.0 |
| 20260506194757 | 7 | 79 | 17.7 | 17.7 | 0.00 | 1.47 | 1.47 | 89 | 1010.1 |
| 20260506194253 | 7 | 77 | 16.1 | 17.7 | 0.00 | 1.47 | 1.47 | 88 | 1010.1 |
| 20260506193751 | 8 | 84 | 14.5 | 19.3 | 0.00 | 1.47 | 1.47 | 89 | 1010.1 |
| 20260506193248 | 8 | 86 | 17.7 | 20.9 | 0.00 | 1.47 | 1.47 | 88 | 1009.9 |
| 20260506192744 | 7 | 85 | 19.3 | 22.5 | 0.00 | 1.47 | 1.47 | 90 | 1009.8 |
| 20260506192241 | 8 | 89 | 12.9 | 20.9 | 0.00 | 1.47 | 1.47 | 89 | 1009.8 |
| 20260506191738 | 7 | 92 | 19.3 | 20.9 | 0.00 | 1.47 | 1.47 | 90 | 1009.6 |
| 20260506191234 | 7 | 91 | 19.3 | 22.5 | 0.00 | 1.47 | 1.47 | 90 | 1009.8 |
| 20260506190732 | 7 | 88 | 14.5 | 17.7 | 0.00 | 1.47 | 1.47 | 90 | 1009.9 |
| 20260506190228 | 7 | 85 | 17.7 | 19.3 | 0.00 | 1.47 | 1.47 | 90 | 1009.9 |
| 20260506185725 | 7 | 87 | 16.1 | 19.3 | 0.00 | 1.47 | 1.47 | 90 | 1010.0 |
| 20260506185221 | 7 | 93 | 14.5 | 17.7 | 0.00 | 1.47 | 1.47 | 90 | 1009.9 |
| 20260506184719 | 7 | 98 | 12.9 | 16.1 | 0.00 | 1.47 | 1.47 | 90 | 1010.1 |
| 20260506184216 | 7 | 96 | 14.5 | 17.7 | 0.00 | 1.47 | 1.47 | 90 | 1010.4 |
| 20260506183713 | 7 | 95 | 11.3 | 16.1 | 0.00 | 1.47 | 1.47 | 90 | 1010.3 |
| 20260506183208 | 7 | 93 | 14.5 | 16.1 | 0.00 | 1.47 | 1.47 | 89 | 1010.3 |
| 20260506182706 | 7 | 109 | 12.9 | 17.7 | 0.00 | 1.47 | 1.47 | 90 | 1010.1 |
| 20260506182203 | 7 | 84 | 14.5 | 17.7 | 0.00 | 1.47 | 1.47 | 90 | 1010.4 |
| 20260506181701 | 7 | 87 | 14.5 | 17.7 | 0.00 | 1.47 | 1.47 | 90 | 1010.2 |
| 20260506181158 | 7 | 93 | 12.9 | 17.7 | 0.00 | 1.47 | 1.47 | 90 | 1010.1 |
| 20260506180655 | 7 | 97 | 14.5 | 17.7 | 0.00 | 1.47 | 1.47 | 90 | 1010.3 |
| 20260506180151 | 7 | 99 | 12.9 | 17.7 | 0.00 | 1.47 | 1.47 | 90 | 1010.2 |
| 20260506175648 | 7 | 86 | 12.9 | 17.7 | 0.00 | 1.47 | 1.47 | 90 | 1010.4 |
| 20260506175145 | 6 | 94 | 11.3 | 16.1 | 0.00 | 1.47 | 1.47 | 90 | 1010.5 |
| 20260506174643 | 6 | 95 | 14.5 | 16.1 | 0.00 | 1.47 | 1.47 | 90 | 1010.5 |
| 20260506174139 | 6 | 98 | 14.5 | 16.1 | 0.00 | 1.47 | 1.47 | 91 | 1010.3 |
| 20260506173637 | 6 | 81 | 12.9 | 16.1 | 0.00 | 1.47 | 1.47 | 90 | 1010.4 |
| 20260506173134 | 6 | 98 | 12.9 | 16.1 | 0.00 | 1.47 | 1.47 | 92 | 1010.3 |
| 20260506172631 | 6 | 91 | 12.9 | 14.5 | 0.00 | 1.47 | 1.47 | 91 | 1010.3 |
| 20260506172127 | 6 | 95 | 14.5 | 17.7 | 0.00 | 1.47 | 1.47 | 92 | 1010.3 |
| 20260506171624 | 6 | 87 | 12.9 | 17.7 | 0.00 | 1.47 | 1.47 | 93 | 1010.1 |
| 20260506171122 | 6 | 87 | 14.5 | 17.7 | 0.00 | 1.47 | 1.47 | 93 | 1010.2 |
| 20260506170620 | 6 | 72 | 17.7 | 20.9 | 0.00 | 1.47 | 1.47 | 92 | 1010.0 |
| 20260506170116 | 6 | 80 | 17.7 | 20.9 | 0.00 | 1.47 | 1.47 | 93 | 1010.0 |
| 20260506165615 | 6 | 71 | 16.1 | 19.3 | 0.00 | 1.47 | 1.47 | 94 | 1010.1 |
| 20260506165110 | 6 | 75 | 17.7 | 19.3 | 0.00 | 1.47 | 1.47 | 93 | 1010.1 |
| 20260506164608 | 6 | 75 | 17.7 | 19.3 | 0.00 | 1.47 | 1.47 | 92 | 1010.2 |
| 20260506164105 | 6 | 70 | 14.5 | 17.7 | 0.00 | 1.47 | 1.47 | 92 | 1010.3 |
| 20260506163600 | 6 | 82 | 14.5 | 17.7 | 0.00 | 1.47 | 1.47 | 92 | 1010.4 |
| 20260506163057 | 6 | 85 | 14.5 | 17.7 | 0.00 | 1.47 | 1.47 | 93 | 1010.1 |
| 20260506162554 | 6 | 87 | 16.1 | 17.7 | 0.00 | 1.47 | 1.47 | 93 | 1010.1 |
| 20260506162051 | 6 | 92 | 14.5 | 19.3 | 0.00 | 1.47 | 1.47 | 93 | 1010.0 |
| 20260506161549 | 6 | 84 | 17.7 | 20.9 | 0.00 | 1.47 | 1.47 | 93 | 1010.0 |
| 20260506161045 | 6 | 94 | 16.1 | 19.3 | 0.00 | 1.47 | 1.47 | 94 | 1010.0 |
| 20260506160543 | 6 | 92 | 12.9 | 20.9 | 0.00 | 1.47 | 1.47 | 93 | 1009.9 |
| 20260506160039 | 6 | 83 | 17.7 | 19.3 | 0.00 | 1.47 | 1.47 | 93 | 1010.0 |
| 20260506155538 | 6 | 93 | 12.9 | 19.3 | 0.00 | 1.47 | 1.47 | 94 | 1010.2 |
| 20260506153709 | 6 | 95 | 17.7 | 19.3 | 0.00 | 1.47 | 1.47 | 95 | 1010.0 |
| 20260506153206 | 6 | 91 | 17.7 | 22.5 | 0.00 | 1.47 | 1.47 | 94 | 1009.8 |
| 20260506152703 | 6 | 93 | 17.7 | 22.5 | 0.00 | 1.47 | 1.47 | 94 | 1009.7 |
| 20260506152201 | 6 | 82 | 17.7 | 20.9 | 0.00 | 1.47 | 1.47 | 95 | 1009.8 |
| 20260506151700 | 6 | 92 | 16.1 | 20.9 | 0.00 | 1.47 | 1.47 | 95 | 1009.9 |
| 20260506151155 | 6 | 94 | 19.3 | 22.5 | 0.05 | 1.47 | 1.47 | 95 | 1009.9 |
| 20260506150652 | 6 | 92 | 19.3 | 20.9 | 0.05 | 1.47 | 1.47 | 95 | 1009.9 |
| 20260506150149 | 6 | 82 | 17.7 | 22.5 | 0.00 | 1.47 | 1.47 | 95 | 1009.7 |
| 20260506145646 | 6 | 93 | 16.1 | 24.1 | 0.00 | 1.47 | 1.47 | 95 | 1009.7 |
| 20260506145143 | 6 | 92 | 16.1 | 24.1 | 0.05 | 1.47 | 1.47 | 95 | 1009.7 |
| 20260506144641 | 6 | 89 | 19.3 | 24.1 | 0.05 | 1.47 | 1.47 | 94 | 1009.9 |
| 20260506144137 | 6 | 86 | 20.9 | 22.5 | 0.05 | 1.45 | 1.45 | 94 | 1009.8 |
| 20260506143635 | 6 | 84 | 19.3 | 22.5 | 0.05 | 1.45 | 1.45 | 95 | 1009.9 |
| 20260506143133 | 6 | 97 | 19.3 | 22.5 | 0.05 | 1.45 | 1.45 | 94 | 1009.9 |
| 20260506142631 | 6 | 81 | 20.9 | 24.1 | 0.05 | 1.45 | 1.45 | 94 | 1009.7 |
| 20260506142129 | 6 | 91 | 16.1 | 24.1 | 0.00 | 1.45 | 1.45 | 94 | 1009.8 |
| 20260506141626 | 6 | 86 | 16.1 | 25.7 | 0.00 | 1.45 | 1.45 | 94 | 1009.7 |
| 20260506141124 | 6 | 157 | 3.2 | 14.5 | 0.00 | 1.45 | 1.45 | 93 | 1009.5 |
| 20260506140621 | 6 | 114 | 8.0 | 16.1 | 0.00 | 1.45 | 1.45 | 93 | 1009.7 |
| 20260506140118 | 6 | 103 | 9.7 | 19.3 | 0.00 | 1.45 | 1.45 | 93 | 1009.5 |
| 20260506135615 | 6 | 115 | 4.8 | 22.5 | 0.00 | 1.45 | 1.45 | 94 | 1009.6 |
| 20260506135111 | 6 | 107 | 9.7 | 14.5 | 0.00 | 1.45 | 1.45 | 95 | 1009.4 |
| 20260506134608 | 6 | 107 | 14.5 | 19.3 | 0.00 | 1.45 | 1.45 | 95 | 1009.4 |
| 20260506134104 | 6 | 100 | 6.4 | 12.9 | 0.05 | 1.45 | 1.45 | 95 | 1009.5 |
| 20260506133602 | 6 | 100 | 9.7 | 16.1 | 0.05 | 1.45 | 1.45 | 95 | 1009.4 |
| 20260506133058 | 6 | 112 | 6.4 | 9.7 | 0.00 | 1.42 | 1.42 | 95 | 1009.3 |
| 20260506132555 | 6 | 106 | 9.7 | 16.1 | 0.00 | 1.42 | 1.42 | 95 | 1009.3 |
| 20260506132053 | 6 | 98 | 11.3 | 19.3 | 0.00 | 1.42 | 1.42 | 95 | 1009.4 |
| 20260506131550 | 6 | 95 | 16.1 | 17.7 | 0.00 | 1.42 | 1.42 | 95 | 1009.1 |
| 20260506131046 | 6 | 116 | 4.8 | 8.0 | 0.05 | 1.42 | 1.42 | 95 | 1009.3 |
| 20260506130543 | 6 | 116 | 8.0 | 9.7 | 0.05 | 1.42 | 1.42 | 95 | 1009.3 |
| 20260506130041 | 6 | 114 | 11.3 | 12.9 | 0.05 | 1.42 | 1.42 | 95 | 1009.1 |
| 20260506125539 | 6 | 120 | 8.0 | 14.5 | 0.05 | 1.42 | 1.42 | 96 | 1009.1 |
| 20260506125036 | 6 | 157 | 8.0 | 12.9 | 0.05 | 1.42 | 1.42 | 96 | 1009.2 |
| 20260506124534 | 6 | 125 | 8.0 | 14.5 | 0.05 | 1.40 | 1.40 | 95 | 1008.8 |
| 20260506124032 | 6 | 86 | 6.4 | 11.3 | 0.18 | 1.40 | 1.40 | 96 | 1008.8 |
| 20260506123529 | 6 | 102 | 8.0 | 11.3 | 0.18 | 1.40 | 1.40 | 96 | 1008.7 |
| 20260506123027 | 6 | 109 | 8.0 | 11.3 | 0.13 | 1.37 | 1.37 | 96 | 1008.7 |
| 20260506122523 | 6 | 127 | 4.8 | 9.7 | 0.05 | 1.37 | 1.37 | 96 | 1008.6 |
| 20260506122022 | 6 | 128 | 8.0 | 11.3 | 0.00 | 1.35 | 1.35 | 96 | 1008.6 |
| 20260506121519 | 6 | 110 | 12.9 | 14.5 | 0.05 | 1.35 | 1.35 | 96 | 1008.8 |
| 20260506121015 | 6 | 130 | 12.9 | 19.3 | 0.05 | 1.35 | 1.35 | 96 | 1008.6 |
| 20260506120513 | 6 | 117 | 8.0 | 17.7 | 0.13 | 1.35 | 1.35 | 96 | 1008.7 |
| 20260506120010 | 6 | 113 | 8.0 | 19.3 | 0.23 | 1.35 | 1.35 | 96 | 1008.9 |
| 20260506115508 | 6 | 114 | 6.4 | 14.5 | 0.23 | 1.32 | 1.32 | 97 | 1008.9 |
| 20260506115006 | 6 | 112 | 11.3 | 14.5 | 0.23 | 1.30 | 1.30 | 97 | 1008.8 |
| 20260506114503 | 6 | 99 | 8.0 | 11.3 | 0.18 | 1.27 | 1.27 | 97 | 1008.7 |
| 20260506114002 | 6 | 116 | 6.4 | 11.3 | 0.18 | 1.27 | 1.27 | 97 | 1008.9 |
| 20260506113459 | 6 | 110 | 8.0 | 11.3 | 0.18 | 1.24 | 1.24 | 97 | 1009.1 |
| 20260506112955 | 6 | 112 | 3.2 | 12.9 | 0.18 | 1.22 | 1.22 | 97 | 1009.1 |
| 20260506112453 | 6 | 132 | 6.4 | 16.1 | 0.13 | 1.22 | 1.22 | 97 | 1009.2 |
| 20260506111950 | 6 | 115 | 8.0 | 9.7 | 0.13 | 1.19 | 1.19 | 97 | 1009.1 |
| 20260506111448 | 6 | 104 | 4.8 | 9.7 | 0.05 | 1.19 | 1.19 | 97 | 1008.9 |
| 20260506110945 | 6 | 123 | 6.4 | 9.7 | 0.05 | 1.19 | 1.19 | 98 | 1008.8 |
| 20260506110443 | 6 | 114 | 8.0 | 11.3 | 0.13 | 1.19 | 1.19 | 97 | 1008.6 |
| 20260506105939 | 6 | 109 | 6.4 | 14.5 | 0.05 | 1.17 | 1.17 | 97 | 1008.8 |
| 20260506105435 | 6 | 114 | 8.0 | 8.0 | 0.05 | 1.17 | 1.17 | 98 | 1008.6 |
| 20260506104933 | 6 | 143 | 8.0 | 9.7 | 0.18 | 1.17 | 1.17 | 97 | 1008.6 |
| 20260506104431 | 6 | 113 | 9.7 | 14.5 | 0.23 | 1.14 | 1.14 | 97 | 1008.1 |
| 20260506103929 | 6 | 86 | 9.7 | 17.7 | 0.23 | 1.14 | 1.14 | 97 | 1008.2 |
| 20260506103426 | 6 | 93 | 6.4 | 9.7 | 0.23 | 1.12 | 1.12 | 97 | 1008.3 |
| 20260506102923 | 6 | 131 | 6.4 | 9.7 | 0.13 | 1.07 | 1.07 | 97 | 1008.4 |
| 20260506102421 | 6 | 105 | 6.4 | 9.7 | 0.05 | 1.07 | 1.07 | 97 | 1008.5 |
| 20260506101918 | 6 | 113 | 9.7 | 9.7 | 0.13 | 1.07 | 1.07 | 97 | 1008.6 |
| 20260506101414 | 6 | 93 | 9.7 | 14.5 | 0.18 | 1.04 | 1.04 | 97 | 1008.6 |
| 20260506100911 | 6 | 108 | 4.8 | 9.7 | 0.18 | 1.04 | 1.04 | 97 | 1008.8 |
| 20260506100410 | 6 | 100 | 8.0 | 12.9 | 0.18 | 1.02 | 1.02 | 97 | 1008.8 |
| 20260506095907 | 6 | 114 | 9.7 | 14.5 | 0.13 | 0.99 | 0.99 | 97 | 1008.8 |
| 20260506095406 | 6 | 109 | 8.0 | 9.7 | 0.05 | 0.99 | 0.99 | 97 | 1008.9 |
| 20260506094902 | 6 | 111 | 9.7 | 14.5 | 0.00 | 0.99 | 0.99 | 97 | 1008.9 |
| 20260506094401 | 6 | 96 | 9.7 | 22.5 | 0.05 | 0.99 | 0.99 | 97 | 1008.8 |
| 20260506093858 | 7 | 96 | 20.9 | 29.0 | 0.13 | 0.97 | 0.97 | 97 | 1009.1 |
| 20260506093355 | 7 | 96 | 24.1 | 29.0 | 0.18 | 0.97 | 0.97 | 97 | 1009.1 |
| 20260506092853 | 7 | 92 | 19.3 | 29.0 | 0.13 | 0.94 | 0.94 | 97 | 1009.1 |
| 20260506092351 | 7 | 88 | 24.1 | 27.4 | 0.18 | 0.94 | 0.94 | 97 | 1008.9 |
| 20260506091847 | 7 | 98 | 16.1 | 27.4 | 0.18 | 0.91 | 0.91 | 97 | 1009.2 |
| 20260506091345 | 7 | 99 | 19.3 | 25.7 | 0.23 | 0.91 | 0.91 | 97 | 1009.2 |
| 20260506090842 | 7 | 89 | 24.1 | 27.4 | 0.18 | 0.89 | 0.89 | 97 | 1009.1 |
| 20260506090340 | 7 | 93 | 20.9 | 27.4 | 0.18 | 0.86 | 0.86 | 97 | 1009.2 |
| 20260506085836 | 7 | 97 | 22.5 | 29.0 | 0.18 | 0.86 | 0.86 | 97 | 1009.1 |
| 20260506085332 | 7 | 95 | 19.3 | 30.6 | 0.13 | 0.84 | 0.84 | 97 | 1008.7 |
| 20260506084829 | 7 | 110 | 8.0 | 17.7 | 0.13 | 0.84 | 0.84 | 96 | 1008.8 |
| 20260506084326 | 7 | 93 | 16.1 | 17.7 | 0.13 | 0.81 | 0.81 | 96 | 1008.8 |
| 20260506083822 | 7 | 120 | 4.8 | 16.1 | 0.05 | 0.81 | 0.81 | 96 | 1008.8 |
| 20260506083320 | 7 | 119 | 9.7 | 22.5 | 0.05 | 0.81 | 0.81 | 96 | 1009.2 |
| 20260506082817 | 7 | 88 | 20.9 | 22.5 | 0.13 | 0.81 | 0.81 | 96 | 1008.9 |
| 20260506082314 | 7 | 88 | 22.5 | 27.4 | 0.13 | 0.79 | 0.79 | 97 | 1008.8 |
| 20260506081810 | 7 | 97 | 19.3 | 27.4 | 0.18 | 0.79 | 0.79 | 97 | 1009.4 |
| 20260506081308 | 7 | 92 | 19.3 | 29.0 | 0.13 | 0.76 | 0.76 | 97 | 1008.6 |
| 20260506080806 | 7 | 110 | 16.1 | 27.4 | 0.13 | 0.74 | 0.74 | 97 | 1008.7 |
| 20260506080302 | 7 | 96 | 27.4 | 29.0 | 0.18 | 0.74 | 0.74 | 97 | 1008.8 |
| 20260506073246 | 7 | 106 | 8.0 | 12.9 | 0.18 | 0.61 | 0.61 | 97 | 1009.1 |
| 20260506072743 | 7 | 132 | 8.0 | 20.9 | 0.18 | 0.61 | 0.61 | 97 | 1009.2 |
| 20260506072240 | 7 | 103 | 14.5 | 14.5 | 0.23 | 0.58 | 0.58 | 97 | 1009.2 |